Wind_Speed
6 5 4 4 2 2 1 1 2 2 2 3 4 5 5 6 7 8 8 8 7 7 7 7 7 6 6 6 5 6 6 6 7 7 7 7 8 9 9 9 10 10 10 10 10 10 11 11 12
7 6 5 4 3 2 2 2 3 3 3 4 4 5 5 6 7 8 8 7 7 6 6 7 7 7 7 7 6 6 7 8 8 9 8 9 9 10 11 11 11 12 12 12 12 12 12 12 13
8 7 6 4 3 2 2 2 3 3 4 5 5 6 6 7 7 8 7 6 7 7 7 8 8 8 8 7 7 7 8 8 9 9 9 10 10 11 12 13 13 13 13 13 14 13 13 14 15
9 8 7 5 3 2 2 2 3 3 4 5 6 6 6 7 7 7 7 6 7 9 9 10 9 9 9 8 8 8 9 9 10 10 10 11 12 12 13 14 15 15 15 15 15 16 16 16 17
10 9 7 5 3 3 3 3 2 2 4 5 6 6 6 7 7 6 6 7 8 9 9 10 10 10 10 10 10 10 10 10 11 12 12 13 13 14 15 16 16 17 17 16 17 18 18 18 18
11 9 8 6 4 4 2 3 3 4 4 5 6 6 6 5 7 8 8 8 9 9 10 10 10 10 10 10 10 10 11 11 12 13 14 14 15 16 17 17 18 17 18 18 19 19 19 19 19
11 10 8 6 5 3 3 3 3 5 5 5 6 6 6 6 7 8 8 9 9 10 10 10 10 10 11 11 11 11 12 12 13 14 15 16 17 18 18 19 19 19 19 20 20 20 20 20 20
10 10 8 7 5 4 3 3 4 5 6 7 7 6 6 7 8 8 9 9 9 10 11 11 11 12 12 12 12 12 14 14 15 15 16 18 19 19 19 19 20 21 21 22 22 21 22 22 22
11 10 9 7 6 5 5 4 5 5 7 8 8 8 8 8 9 9 9 10 10 11 12 13 13 13 13 13 13 14 15 16 16 17 18 19 20 20 20 21 21 22 22 22 23 23 23 24 24
12 11 9 8 7 6 5 5 6 7 8 8 9 9 10 10 10 10 10 11 11 12 13 14 14 15 15 15 15 15 17 18 18 19 19 21 22 22 22 23 23 24 23 24 24 24 24 25 25
12 11 9 8 8 8 6 6 6 7 8 8 9 10 11 12 11 10 10 11 12 14 15 15 16 17 17 17 17 17 18 19 20 20 21 22 22 23 24 24 25 25 25 25 25 25 25 25 25
11 10 9 9 9 8 8 8 8 8 9 10 11 12 13 14 12 12 12 13 14 15 15 16 18 18 18 18 19 19 20 21 22 22 23 23 23 23 24 25 25 25 26 26 26 26 27 27 26
9 9 10 10 9 8 8 8 9 10 11 12 12 13 14 14 13 12 13 14 15 16 16 17 18 19 19 19 19 20 22 22 23 24 24 24 24 24 25 26 26 26 26 26 27 27 28 28 28
8 9 10 10 9 9 8 8 9 10 11 11 12 13 13 13 14 14 14 14 16 17 17 18 18 19 19 20 20 21 23 23 24 24 24 24 25 25 26 26 27 27 27 27 28 28 29 29 29
8 9 10 10 9 9 8 8 9 10 10 12 13 15 15 15 15 15 15 16 17 18 18 18 19 20 20 21 22 23 23 24 25 25 25 25 25 26 26 27 28 28 28 29 29 29 30 29 29
6 8 9 9 8 8 9 9 9 9 11 12 14 16 17 17 17 17 17 17 18 19 19 19 20 21 21 21 22 23 24 25 26 26 26 26 27 26 27 28 28 29 30 30 29 29 29 29 29
6 7 8 9 8 9 9 9 9 10 12 13 15 16 17 18 18 18 18 18 19 20 20 20 21 21 22 22 23 24 25 26 27 27 26 26 27 27 27 28 29 29 30 30 29 29 29 29 29
6 6 6 8 9 9 9 9 10 11 13 14 15 16 17 18 19 19 18 19 20 20 21 21 21 21 23 24 25 26 26 27 28 27 27 27 27 27 27 27 28 28 28 28 29 29 30 29 29
6 6 6 7 8 9 9 10 10 11 13 14 14 16 17 19 18 19 19 19 20 20 20 21 21 22 23 25 26 26 27 28 28 27 27 28 27 26 27 27 27 27 27 28 28 29 29 28 29
6 6 8 9 9 10 11 11 11 13 13 14 16 17 18 20 19 19 19 19 19 20 21 21 22 23 24 25 26 27 28 28 28 27 27 27 26 26 26 26 26 27 27 28 28 27 28 27 28
7 8 8 9 9 11 13 12 12 13 14 16 17 18 19 20 20 20 20 20 20 20 21 21 22 23 25 26 26 27 27 28 27 26 26 26 26 26 26 25 25 26 26 26 26 26 26 26 26
9 10 11 10 11 12 13 14 13 14 15 17 18 19 20 20 21 21 20 21 21 21 22 22 22 23 25 26 26 27 27 27 27 26 26 26 26 26 26 25 25 25 25 26 26 26 26 25 25
9 11 12 11 12 13 14 15 14 14 15 16 18 19 19 20 20 21 22 21 22 22 22 23 23 24 24 25 27 27 27 27 27 25 25 25 25 26 25 25 24 24 25 25 25 25 25 25 25
10 11 11 12 13 14 15 16 16 15 15 16 17 19 20 20 21 22 22 22 22 22 23 23 23 24 24 26 27 27 27 27 27 26 25 25 24 24 24 24 24 23 23 23 23 24 25 25 25
10 11 12 13 13 14 15 16 16 16 17 17 18 20 20 21 21 21 22 22 23 23 23 23 23 24 25 26 26 26 27 27 27 26 25 24 24 23 23 23 23 22 22 21 21 22 22 23 23
11 12 13 14 15 15 15 15 16 17 18 18 19 19 20 20 21 21 22 22 21 22 23 23 23 23 25 25 26 26 26 27 26 24 23 23 22 22 22 22 21 20 20 20 19 21 21 20 20
12 13 14 15 16 17 16 16 17 17 18 19 19 20 20 20 20 20 21 20 20 21 22 22 22 22 24 25 26 26 26 25 24 23 22 22 20 20 21 21 20 19 19 18 19 19 18 18 17
14 15 16 17 18 18 17 17 18 19 19 20 20 21 20 20 20 19 19 19 20 20 20 20 21 21 23 25 25 25 24 22 22 22 21 20 18 19 20 20 20 19 18 17 17 16 16 15 14
14 15 16 17 18 18 19 19 19 19 19 20 20 20 20 20 19 19 18 18 19 19 19 20 20 21 22 23 23 23 22 21 21 20 19 18 18 18 19 19 19 17 17 16 16 15 14 13 13
15 15 16 17 18 19 19 19 19 20 20 20 20 20 19 18 17 16 17 18 19 19 18 18 19 20 21 20 21 21 20 20 20 19 18 17 17 18 18 18 18 17 16 16 15 14 13 11 10
Wind_Direction
222 221 225 231 255 277 279 338 332 327 344 356 349 350 353 346 342 339 335 335 336 338 348 349 341 343 343 336 333 329 320 319 316 311 307 308 305 303 302 300 297 293 291 288 285 284 283 280 277
227 229 233 233 247 282 278 310 328 321 338 352 345 344 347 340 337 337 337 335 334 337 341 338 342 347 341 336 330 322 319 320 316 309 305 304 302 300 298 296 295 294 290 287 284 281 281 280 279
231 232 233 233 241 267 275 293 309 317 330 340 344 337 341 342 336 338 336 339 341 338 335 342 345 344 340 338 331 321 318 314 309 303 303 302 299 298 295 294 292 291 288 285 284 281 279 278 278
231 232 233 229 227 245 271 294 302 312 328 332 339 339 343 345 341 342 343 346 342 340 337 341 344 337 332 332 328 319 316 313 306 303 302 298 297 295 293 292 291 289 287 283 282 281 279 278 277
230 230 231 225 226 248 261 264 279 300 317 319 327 330 332 339 343 341 341 344 342 338 339 336 335 329 324 322 320 317 311 307 303 302 299 297 298 294 290 290 290 289 287 285 284 282 279 278 275
234 231 226 221 224 242 262 270 286 302 301 313 323 325 329 333 334 334 334 336 337 332 330 329 334 331 326 321 317 314 308 301 301 301 297 297 295 291 289 289 289 289 288 285 283 282 279 277 275
237 231 225 220 224 246 274 285 283 298 311 323 326 328 324 326 324 323 328 327 327 326 326 326 327 325 323 319 317 313 308 305 304 302 298 296 293 290 289 290 288 288 286 283 281 279 278 279 276
236 232 227 225 227 246 262 288 305 308 317 319 322 326 320 319 315 311 314 317 322 322 320 318 320 317 316 315 312 311 308 306 306 303 299 297 295 293 290 289 288 287 284 281 279 280 280 278 276
235 227 226 225 225 241 253 270 290 303 314 316 316 315 313 310 305 308 308 309 313 314 314 314 312 310 310 310 308 308 308 307 304 302 299 296 294 292 289 289 287 287 285 283 281 278 278 276 274
232 225 228 229 231 235 251 267 286 301 311 313 313 310 308 308 303 302 300 304 308 311 312 311 309 308 308 308 306 306 306 306 305 302 300 296 294 291 288 287 286 285 284 284 282 279 278 276 274
228 225 226 230 236 240 246 263 285 299 308 310 311 309 308 306 306 300 297 299 306 311 311 310 310 307 306 305 305 305 305 305 306 304 301 298 293 290 288 287 287 285 284 282 281 280 279 277 274
224 220 226 232 238 244 254 265 284 296 301 308 311 311 309 306 304 301 300 301 305 309 311 312 311 309 304 302 302 303 304 306 305 304 301 299 294 291 289 287 287 285 284 283 281 280 279 277 275
220 222 228 237 239 246 259 270 284 293 298 304 308 311 308 309 308 301 299 302 305 306 305 306 308 307 303 301 302 304 304 305 306 304 302 300 297 293 290 288 285 284 282 282 282 280 278 276 275
219 227 235 238 244 256 265 275 282 291 293 297 303 303 303 307 306 303 301 302 304 304 302 301 304 304 303 302 301 302 303 304 305 304 301 298 296 293 289 287 286 284 283 281 280 279 278 275 274
221 231 240 244 253 263 272 280 286 290 293 294 296 295 298 302 302 302 300 299 302 301 299 299 303 304 303 302 301 302 302 304 305 305 301 298 296 293 290 288 285 283 282 281 280 279 279 276 274
224 235 239 238 251 263 274 283 287 291 291 292 293 294 297 299 299 299 300 300 299 298 298 300 304 305 303 303 303 305 304 304 304 304 302 299 296 295 292 289 286 284 282 281 281 280 280 278 275
224 232 238 242 259 269 275 280 285 288 289 290 294 295 299 299 297 298 299 297 297 298 300 300 304 304 304 307 308 309 307 307 306 304 302 300 296 294 293 291 288 285 283 282 282 280 279 277 275
236 245 247 257 268 273 282 287 282 288 295 296 296 298 300 299 297 297 296 297 298 299 301 300 303 304 306 307 308 308 309 310 308 305 303 301 300 298 294 291 288 286 285 284 283 282 280 277 273
247 255 265 274 277 280 284 289 286 288 294 296 297 299 299 301 300 297 298 300 299 298 301 302 302 302 304 305 307 309 309 311 310 308 306 303 301 299 297 293 290 288 284 283 283 282 280 277 273
263 269 273 274 278 284 287 286 288 291 294 297 300 301 299 302 303 301 299 300 301 300 300 300 302 304 307 309 309 310 311 311 312 310 308 306 303 301 298 295 291 288 286 285 283 283 282 278 275
279 282 278 275 279 286 288 289 291 293 293 298 302 305 304 304 304 303 304 305 305 303 302 302 304 307 309 310 311 312 312 313 313 313 311 309 306 305 302 299 294 290 288 288 287 284 283 281 276
277 283 285 284 288 291 295 294 294 294 295 300 305 307 309 308 309 309 308 308 307 305 302 304 305 307 309 311 313 314 315 315 315 314 312 310 308 307 304 301 298 294 290 290 289 286 284 280 277
276 280 284 287 293 295 297 293 297 299 298 300 305 306 307 309 309 309 309 308 308 307 306 308 309 310 312 314 316 316 317 316 315 314 313 312 310 309 307 306 304 300 295 293 290 286 285 281 277
277 280 288 291 294 296 299 296 297 301 302 301 305 308 309 308 308 307 306 306 308 308 307 307 310 312 311 313 314 315 315 315 314 314 313 313 313 312 310 309 308 305 301 296 292 287 285 281 278
284 289 297 299 301 303 302 299 301 304 305 305 306 311 312 309 306 306 306 306 308 308 308 309 310 311 312 314 314 315 315 314 315 315 315 315 315 314 313 311 309 307 304 300 296 291 288 283 280
289 296 301 305 307 310 304 302 306 308 309 308 308 311 313 309 305 304 304 305 308 309 309 311 311 311 314 316 316 317 316 315 316 315 316 315 315 316 317 317 314 312 308 305 300 297 292 288 284
286 291 298 301 303 306 306 306 307 309 311 311 310 310 312 313 309 305 307 308 311 312 312 313 313 314 315 316 317 318 318 318 318 317 316 315 315 320 323 324 320 316 312 309 307 305 300 295 289
286 291 295 299 302 305 308 308 310 312 312 312 312 311 312 313 312 312 312 314 317 317 319 319 318 317 318 319 320 321 322 322 322 319 318 317 318 323 327 329 327 322 318 316 315 311 308 301 294
285 288 293 296 299 303 308 312 314 315 315 315 315 315 315 314 312 313 316 317 320 321 321 321 322 322 325 327 328 328 328 328 326 325 325 323 321 324 327 330 333 331 328 324 322 317 313 309 303
284 288 292 296 298 301 305 311 313 313 315 315 318 320 320 316 314 316 318 320 321 322 322 324 326 327 330 333 336 336 337 335 334 335 334 331 328 328 330 334 335 333 332 331 331 326 322 316 311
Height
5875 5876 5876 5878 5879 5879 5878 5878 5877 5877 5877 5876 5876 5876 5875 5876 5876 5877 5874 5872 5872 5871 5870 5869 5868 5867 5867 5866 5866 5866 5866 5866 5866 5866 5866 5866 5866 5866 5866 5866 5866 5866 5866 5866 5866 5866 5866 5866 5866
5874 5875 5877 5877 5877 5877 5877 5877 5876 5876 5876 5876 5876 5875 5875 5874 5874 5874 5872 5872 5871 5871 5870 5868 5867 5866 5866 5866 5865 5865 5865 5865 5865 5864 5864 5864 5864 5864 5864 5864 5864 5864 5863 5863 5864 5864 5864 5864 5864
5874 5875 5876 5876 5876 5877 5877 5876 5876 5876 5876 5876 5875 5875 5874 5874 5873 5873 5872 5871 5871 5870 5869 5868 5866 5866 5865 5865 5864 5864 5864 5863 5863 5863 5862 5862 5862 5862 5862 5862 5861 5861 5861 5861 5861 5861 5861 5861 5861
5873 5874 5875 5876 5875 5875 5875 5876 5875 5875 5875 5875 5875 5874 5874 5873 5873 5872 5871 5871 5870 5870 5868 5867 5866 5865 5864 5864 5863 5862 5862 5862 5861 5861 5860 5860 5860 5860 5859 5859 5858 5858 5858 5858 5858 5858 5858 5858 5858
5871 5873 5874 5874 5874 5874 5874 5874 5874 5874 5874 5874 5875 5874 5873 5873 5872 5871 5871 5870 5870 5869 5868 5866 5865 5864 5863 5862 5861 5861 5860 5860 5860 5859 5858 5858 5857 5857 5856 5856 5855 5855 5854 5854 5854 5854 5854 5854 5854
5870 5871 5872 5872 5872 5873 5873 5873 5873 5873 5874 5874 5874 5873 5872 5872 5871 5871 5870 5869 5868 5868 5867 5865 5864 5863 5862 5861 5860 5859 5859 5858 5857 5857 5856 5855 5855 5854 5853 5852 5852 5851 5851 5850 5850 5850 5849 5850 5849
5868 5869 5870 5871 5871 5872 5872 5872 5873 5872 5872 5873 5872 5872 5871 5870 5870 5869 5868 5868 5867 5866 5865 5864 5863 5862 5861 5860 5859 5857 5857 5856 5855 5854 5853 5852 5851 5851 5850 5849 5848 5847 5847 5846 5846 5846 5845 5845 5845
5865 5868 5868 5869 5870 5871 5871 5871 5871 5871 5871 5871 5871 5870 5870 5869 5868 5868 5867 5866 5865 5864 5863 5862 5861 5860 5859 5858 5857 5855 5854 5853 5852 5851 5850 5849 5848 5847 5846 5845 5844 5843 5842 5842 5841 5841 5841 5841 5840
5864 5866 5866 5867 5868 5869 5869 5870 5870 5870 5870 5870 5869 5869 5868 5868 5867 5866 5865 5864 5863 5862 5861 5860 5859 5858 5856 5855 5854 5853 5852 5851 5849 5848 5846 5845 5844 5843 5841 5840 5839 5838 5837 5837 5836 5836 5836 5835 5835
5862 5863 5865 5866 5866 5867 5867 5868 5868 5868 5868 5868 5867 5867 5866 5865 5865 5864 5863 5862 5861 5861 5859 5858 5857 5855 5854 5853 5852 5850 5849 5848 5846 5844 5843 5841 5840 5838 5837 5836 5834 5833 5832 5832 5831 5830 5830 5830 5829
5860 5861 5862 5863 5864 5865 5866 5866 5866 5867 5867 5866 5866 5865 5864 5863 5863 5862 5861 5860 5859 5858 5857 5856 5854 5852 5851 5850 5849 5847 5845 5844 5842 5840 5838 5836 5834 5833 5832 5830 5829 5828 5827 5826 5825 5824 5824 5824 5823
5858 5859 5860 5861 5862 5863 5864 5864 5865 5865 5865 5864 5864 5863 5862 5861 5860 5859 5859 5858 5857 5856 5854 5852 5851 5849 5848 5846 5845 5843 5841 5840 5838 5835 5833 5831 5829 5827 5826 5825 5824 5822 5821 5820 5819 5818 5818 5817 5816
5856 5858 5859 5860 5861 5861 5862 5862 5862 5862 5862 5862 5861 5860 5859 5858 5857 5856 5855 5855 5854 5853 5851 5850 5848 5846 5844 5842 5841 5839 5837 5835 5833 5830 5827 5825 5824 5822 5820 5819 5818 5816 5815 5814 5813 5812 5811 5810 5810
5855 5856 5857 5858 5859 5859 5860 5860 5860 5860 5859 5859 5858 5857 5856 5855 5854 5853 5852 5852 5850 5849 5848 5846 5844 5842 5840 5838 5837 5835 5832 5830 5827 5825 5822 5820 5818 5816 5814 5813 5811 5810 5809 5807 5806 5805 5804 5803 5803
5854 5856 5857 5857 5857 5858 5858 5859 5858 5857 5857 5856 5855 5854 5853 5852 5851 5850 5849 5848 5847 5845 5844 5842 5840 5838 5836 5834 5832 5830 5828 5825 5822 5819 5816 5814 5812 5809 5808 5806 5804 5803 5802 5800 5799 5798 5796 5796 5795
5853 5855 5856 5856 5856 5856 5858 5857 5856 5855 5854 5854 5853 5852 5851 5849 5848 5847 5845 5844 5843 5841 5839 5837 5835 5833 5832 5830 5827 5825 5823 5820 5816 5814 5811 5808 5805 5803 5801 5799 5797 5795 5794 5793 5791 5790 5789 5788 5788
5853 5853 5854 5855 5854 5854 5855 5854 5853 5852 5852 5851 5850 5849 5847 5846 5845 5843 5841 5840 5838 5836 5835 5833 5831 5829 5827 5825 5823 5820 5817 5814 5810 5807 5804 5801 5799 5796 5794 5792 5789 5788 5786 5785 5783 5782 5781 5780 5780
5853 5853 5853 5853 5853 5853 5852 5852 5851 5850 5849 5849 5847 5846 5844 5842 5841 5839 5837 5835 5833 5831 5830 5828 5826 5824 5822 5820 5817 5815 5811 5808 5804 5801 5798 5795 5792 5790 5787 5785 5782 5780 5778 5777 5775 5774 5773 5772 5772
5852 5852 5852 5852 5852 5851 5850 5850 5849 5848 5847 5846 5845 5843 5841 5839 5836 5834 5832 5830 5828 5826 5825 5823 5821 5819 5817 5815 5812 5809 5806 5802 5798 5794 5791 5788 5785 5782 5780 5777 5775 5772 5771 5769 5767 5766 5765 5764 5764
5851 5852 5851 5851 5850 5849 5848 5848 5847 5846 5845 5844 5842 5840 5838 5835 5832 5830 5828 5825 5823 5822 5820 5818 5816 5814 5811 5809 5806 5803 5800 5796 5792 5789 5785 5782 5778 5775 5773 5770 5767 5765 5764 5762 5759 5758 5757 5756 5755
5850 5850 5849 5849 5848 5847 5847 5846 5845 5844 5843 5841 5839 5837 5834 5831 5829 5826 5824 5821 5819 5817 5815 5813 5811 5808 5806 5803 5800 5797 5793 5790 5786 5783 5779 5775 5772 5769 5766 5763 5761 5758 5756 5754 5752 5750 5749 5749 5748
5849 5848 5847 5847 5846 5845 5845 5844 5843 5842 5840 5838 5836 5833 5831 5828 5825 5823 5820 5817 5815 5813 5810 5808 5805 5803 5800 5797 5794 5791 5788 5784 5781 5777 5773 5770 5767 5763 5760 5757 5754 5751 5749 5747 5745 5743 5742 5741 5740
5847 5847 5846 5845 5844 5843 5842 5841 5842 5839 5837 5835 5833 5830 5828 5825 5822 5819 5816 5814 5811 5808 5805 5803 5800 5797 5794 5791 5788 5785 5782 5778 5775 5772 5768 5765 5761 5758 5754 5751 5748 5745 5742 5740 5738 5736 5735 5733 5733
5846 5845 5844 5843 5842 5842 5841 5839 5838 5837 5834 5832 5830 5827 5824 5821 5818 5815 5813 5809 5806 5804 5801 5798 5795 5793 5789 5786 5783 5779 5776 5773 5769 5766 5763 5759 5756 5752 5749 5745 5742 5739 5736 5733 5730 5729 5727 5726 5725
5844 5844 5843 5841 5840 5839 5838 5836 5836 5834 5831 5829 5826 5824 5820 5817 5814 5811 5808 5805 5802 5799 5796 5793 5790 5787 5784 5781 5777 5774 5770 5767 5763 5760 5757 5754 5750 5747 5743 5740 5736 5732 5729 5726 5724 5722 5720 5719 5718
5842 5842 5841 5839 5838 5837 5835 5833 5833 5830 5828 5825 5823 5820 5817 5814 5810 5807 5804 5801 5798 5795 5792 5789 5786 5783 5779 5776 5772 5768 5764 5761 5757 5754 5751 5748 5745 5742 5739 5735 5731 5727 5723 5720 5718 5716 5714 5712 5711
5840 5839 5839 5837 5835 5834 5832 5831 5830 5827 5825 5822 5819 5816 5813 5809 5806 5803 5799 5796 5794 5791 5787 5784 5781 5778 5774 5771 5767 5763 5759 5755 5751 5748 5745 5743 5740 5737 5734 5730 5726 5722 5719 5716 5713 5711 5708 5706 5705
5838 5836 5835 5834 5832 5830 5829 5828 5826 5824 5821 5818 5815 5812 5809 5805 5802 5799 5796 5793 5790 5786 5783 5780 5776 5774 5770 5766 5762 5758 5754 5751 5747 5744 5741 5739 5736 5733 5730 5727 5723 5719 5715 5712 5709 5707 5704 5702 5701
5834 5834 5832 5830 5829 5827 5825 5826 5823 5820 5817 5814 5812 5808 5805 5801 5798 5795 5792 5789 5786 5782 5779 5776 5773 5770 5767 5762 5758 5755 5751 5747 5744 5741 5738 5735 5733 5730 5727 5724 5720 5716 5713 5709 5706 5704 5701 5699 5697
5831 5830 5829 5828 5826 5824 5822 5824 5819 5817 5814 5811 5808 5805 5801 5798 5795 5792 5789 5786 5783 5779 5776 5774 5771 5767 5764 5760 5756 5752 5749 5745 5742 5738 5735 5733 5730 5727 5725 5721 5717 5714 5710 5707 5704 5700 5698 5696 5694